Location: Perryvale
(54.4667°N, 113.3833°W)
Time: 00:09:22
(UTC+00:00)

Vanguard 1 Rocket - Pass Details

Date: 26 May 2024
Orbit: 649 x 4221 km, 34.3° (Epoch: 13 June)

Event Time Altitude Azimuth Distance (km) Brightness Sun altitude
Rises 21:10:24 0° 267° (W) 6,588 12.1 51.9°
Reaches altitude 10° 21:18:20 10° 247° (WSW) 4,652 11.8 51.1°
Maximum altitude 21:23:10 13° 223° (SW) 3,778 11.5 50.7°
Drops below altitude 10° 21:27:01 10° 197° (SSW) 3,537 11.2 50.3°
Sets 21:31:22 0° 171° (S) 3,950 11.0 49.8°
